Regional Weather Roundup
Issued by NWS

Home | Current Version | Previous Version | Text Only | Print | Product List | Glossary Off
Versions: 1 2 3 4 5 6 7 8 9 10 11 12 13 14 15 16 17 18 19 20 21 22 23 24 25 26 27 28 29 30 31 32 33 34 35 36 37 38 39 40 41 42 43 44 45 46 47 48 49 50

000
ASUS45 KBOU 280007
RWRCO

WEATHER ROUNDUP FOR COLORADO
NATIONAL WEATHER SERVICE DENVER/BOULDER CO
600 PM MDT FRI MAR 27 2015

NOTE: "FAIR" INDICATES FEW OR NO CLOUDS BELOW 12000 FEET WITH NO
SIGNIFICANT WEATHER AND/OR OBSTRUCTIONS TO VISIBILITY.

COZ001>005-013-030-031-280100-
...NORTHWEST COLORADO...

CITY           SKY/WX    TMP DP  RH WIND       PRES   REMARKS
CRAIG          PTSUNNY   66  30  26 S12       30.17F
HAYDEN         MOSUNNY   63  27  25 W13       30.19F
MEEKER         SUNNY     65  27  23 SW12      30.20F
MOUNT WERNER   NOT AVBL
STEAMBOAT SPGS MOSUNNY   56  31  39 SE8       30.21S
WALDEN         PTSUNNY   54  25  32 W18G28    30.24F
$$

COZ006>008-011-280100-
...WEST CENTRAL VALLEYS...

CITY           SKY/WX    TMP DP  RH WIND       PRES   REMARKS
GRAND JUNCTION SUNNY     70  25  18 N6        30.13F
MONTROSE       SUNNY     70  20  15 NW13      30.19F
EAGLE          SUNNY     66  18  15 NW12G18   30.21S
RIFLE          SUNNY     71  22  15 NW14      30.15S
DELTA          MOSUNNY   74  19  13 W13       30.15S
NUCLA          SUNNY     70  18  13 W7        30.22F
$$

COZ017>023-064>068-280100-
...SOUTHWEST COLORADO...

CITY           SKY/WX    TMP DP  RH WIND       PRES   REMARKS
DURANGO        MOSUNNY   67  22  18 W23G35    30.16S
CORTEZ         SUNNY     69  22  16 W16G22    30.19F
PAGOSA SPRINGS MOSUNNY   63  17  17 W17       30.22S
TELLURIDE      PTSUNNY   55  20  25 NW6       30.35R
WOLF CREEK PAS MOSUNNY   41  12  30 CALM      30.48S
$$

COZ009-010-012-014-032>034-037-058>063-280100-
...CENTRAL COLORADO...

CITY           SKY/WX    TMP DP  RH WIND       PRES   REMARKS
ASPEN          MOSUNNY   59  21  23 NW14G22   30.25R
BUENA VISTA    MOSUNNY   61  14  16 NW9G18    30.23S
COPPER MTN     MOSUNNY   39  19  45 W21G29    30.43S
BERTHOUD PASS  FAIR      28  23  80 NW33G46   30.41S WCI  12
COTTONWOOD PAS MOSUNNY   54   9  16 W13G22    30.33S
GUNNISON       SUNNY     61  18  18 NW12      30.28R
KREMMLING      SUNNY     59  19  21 NW9       30.26S
LEADVILLE      PTSUNNY   45  20  36 W17G23    30.32S
SALIDA         MOSUNNY   65  11  12 NW12G22   30.28R
SUNLIGHT       SUNNY     46  23  39 CALM      30.44S
WILKERSON PASS MOSUNNY   41  18  38 N5G17     30.42R
$$

COZ069>075-280100-
...SAN LUIS VALLEY/SANGRE DE CRISTO MOUNTAINS...

CITY           SKY/WX    TMP DP  RH WIND       PRES   REMARKS
ALAMOSA        MOSUNNY   64  12  13 N20       30.18S
LA VETA PASS   MOSUNNY   46  16  29 SW7       30.32R
SAGUACHE       MOSUNNY   61  21  21 NW23G30   30.23R
$$

COZ035-036-038>040-280100-
...NORTHERN COLORADO FRONT RANGE...

CITY           SKY/WX    TMP DP  RH WIND       PRES   REMARKS
DENVER INTL AP PTSUNNY   65  31  28 NW7       30.09S
DMNS CITY PARK   N/A     69  26  19 E1        30.08S
AURORA         PTSUNNY   67  31  26 NE6       30.11R
FRONT RANGE AP PTSUNNY   66  36  32 MISG      30.10S
ERIE MUNI ARPT PTSUNNY   68  28  22 E3        30.07S
BOULDER MUN AP MOSUNNY   70  28  21 W13G22    30.07S
CENTENNIAL     MOSUNNY   65  29  25 N9        30.11S
BROOMFIELD     PTSUNNY   66  28  24 SW12      30.10S
FORT COLLINS   MOSUNNY   70  30  23 NW15G21   30.07S
LONGMONT       CLOUDY    72  28  19 NW15G21   30.08S
$$

COZ041-046-047-076>085-087-088-280100-
...PIKES PEAK/PALMER DIVIDE AND SOUTHERN FOOTHILLS...

CITY           SKY/WX    TMP DP  RH WIND       PRES   REMARKS
COLO. SPRINGS  PTSUNNY   64  26  23 S7        30.14R
A. F. ACADEMY  MOSUNNY   64  23  21 N7        30.14S
ELLICOTT       CLOUDY   N/A N/A N/A SE8       30.13R
FALCON         MOSUNNY   60  25  25 N9        30.18R
FORT CARSON    PTSUNNY   63  28  26 NE3       30.11S
LIMON          PTSUNNY   66  27  23 NW17      30.09S
MONUMENT HILL  SUNNY     59  27  29 N13G20    30.16S
TRINIDAD       MOSUNNY   68  29  23 E12       30.08R
$$

COZ042>045-048>051-090-091-280100-
...NORTHEAST COLORADO...

CITY           SKY/WX    TMP DP  RH WIND       PRES   REMARKS
GREELEY ARPT   PTSUNNY   73  28  19 NW21      30.02S
AKRON          PTSUNNY   64  31  28 N14       30.03R
BURLINGTON     CLOUDY    68  33  27 NE9       30.02S
WRAY           MOSUNNY   72  29  20 NW18G26   29.99S
STERLING       MOSUNNY   72  34  25 N13G18    29.99S
HOLYOKE        MOSUNNY   72  32  23 NW14G22   29.97F
FORT MORGAN    MOSUNNY  N/A N/A N/A N20G25    30.03S
$$

COZ086-089-092>099-280100-
...SOUTHEAST COLORADO...

CITY           SKY/WX    TMP DP  RH WIND       PRES   REMARKS
PUEBLO         MOSUNNY   69  29  22 SE8       30.06R
LA JUNTA       SUNNY     71  30  21 S10       30.05S
LAMAR          SUNNY     71  32  23 W7        30.02
SPRINGFIELD      N/A     67  30  25 NE7       30.07S
$$



USA.gov is the U.S. government's official web portal to all federal, state and local government web resources and services.